#timestamp,LO_Frequency,Hit,StdDev 
1562058015.6,286046997.5,P
1562058035.4,286046997.8,Y
1562058055.2,286047000.6,P
1562058075.1,286046998.3,N
1562058076.0,286046998.3,N
1562058095.8,286046997.0,N
1562058115.7,286046996.8,N
1562058135.5,286046997.4,N
1562058155.3,286046994.9,Y
1562058175.2,286046998.8,P
1562058195.0,286046999.5,N
1562058195.9,286046999.5,N
1562058215.7,286046998.9,N
1562058235.6,286046998.6,N
1562058255.4,286046999.1,N
1562058275.3,286046996.9,Y
1562058295.1,286046999.3,P
1562058296.0,286046999.3,P
1562058315.8,286046998.5,P
1562058335.7,286046998.5,Y
1562058355.5,286046998.7,P
1562058375.4,286046998.4,P
1562058395.2,286046997.0,P
1562058415.0,286046997.2,Y
1562058415.9,286046997.2,P
1562058435.8,286046998.3,P
1562058455.6,286047001.1,N
1562058475.4,286047000.4,N
1562058495.3,286046998.3,N
1562058515.1,286046999.7,N
1562058535.9,286047001.3,N
1562058555.7,286047004.2,N
1562058575.5,286047002.8,N
1562058595.4,286047002.3,N
1562058615.2,286046999.9,N
1562058635.0,286047000.4,N
1562058636.0,286047000.4,N
1562058655.8,286047000.7,N
1562058675.6,286046999.5,N
1562058695.5,286046999.1,N
1562058715.3,286046998.0,N
1562058735.1,286046995.7,N
1562058755.9,286046997.9,N
1562058775.7,286046997.0,N
1562058795.6,286046996.0,N
1562058815.4,286046995.3,N
1562058835.2,286046997.3,N
1562058855.1,286046995.6,N
1562058856.0,286046995.6,N
1562058875.8,286046996.2,N
1562058895.7,286046992.5,Y
1562058915.5,286046995.7,P
1562058935.3,286046995.4,N
1562058955.2,286046997.9,N
1562058975.0,286046998.0,N
1562058975.9,286046998.0,N
1562058995.7,286046997.0,N
1562059015.6,286046996.9,N
1562059035.4,286046996.9,N
1562059055.3,286046996.9,N
1562059075.1,286046996.6,Y
1562059076.0,286046996.6,P
1562059095.8,286046998.8,P
1562059115.7,286046998.5,N
1562059135.5,286047001.2,N
1562059155.3,286047000.4,N
1562059175.2,286046998.5,N
1562059195.0,286046999.1,N
1562059195.9,286046999.1,N
1562059215.8,286046997.4,N
1562059235.6,286046997.0,N
1562059255.4,286046993.4,Y
1562059275.3,286046997.8,P
1562059295.1,286046994.9,P
1562059315.8,286046995.0,P
1562059335.7,286046995.4,N
1562059355.5,286046997.7,N
1562059375.4,286046999.4,N
1562059395.2,286047001.2,N
1562059415.0,286046999.0,N
1562059415.9,286046999.0,N
1562059435.8,286046998.7,N
1562059455.6,286046998.3,N
1562059475.4,286046996.5,N
1562059495.3,286046998.7,N
1562059515.1,286047000.9,N
1562059535.8,286047000.3,N
1562059555.7,286047000.1,N
1562059575.5,286047001.2,N
1562059595.4,286046999.5,N
1562059615.2,286046999.1,N
1562059635.0,286046996.5,N
1562059635.9,286046996.5,N
1562059655.8,286046996.5,N
1562059675.6,286046999.1,N
1562059695.4,286046996.5,N
1562059715.3,286046999.4,N
1562059735.1,286046999.2,N
1562059755.9,286046998.8,N
1562059775.7,286046998.6,N
1562059795.5,286047000.8,N
1562059815.4,286047000.5,N
1562059835.2,286047000.1,N
1562059855.0,286047000.6,N
1562059855.9,286047000.6,N
1562059875.8,286047000.8,N
1562059895.6,286046996.9,N
1562059915.5,286046999.6,N
1562059935.3,286047000.6,N
1562059955.1,286047002.4,N
1562059975.9,286047001.0,N
1562059995.7,286047000.3,N
1562060015.5,286046999.8,N
1562060035.4,286047000.5,N
1562060055.2,286047001.2,N
1562060075.0,286047001.2,N
1562060076.0,286047001.2,N
1562060095.8,286047000.3,N
1562060115.6,286047002.4,N
1562060135.5,286047002.5,N
1562060155.3,286047000.0,N
1562060175.1,286047000.4,N
1562060195.9,286047000.9,N
1562060215.7,286047000.6,N
1562060235.6,286047000.9,N
1562060255.4,286047000.3,N
1562060275.2,286047001.1,N
1562060295.1,286047000.6,N
1562060296.0,286047000.6,N
1562060315.8,286047000.0,N
1562060335.6,286047000.0,N
1562060355.5,286047000.3,N
1562060375.3,286047001.2,N
1562060395.2,286047000.4,N
1562060415.9,286047000.5,N
1562060435.7,286047002.4,N
1562060455.6,286047000.0,N
1562060475.4,286047000.3,N
1562060495.2,286047002.3,Y
1562060515.1,286046998.1,P
1562060516.0,286046998.1,N
1562060535.8,286047001.2,N
1562060555.7,286046998.2,N
1562060575.5,286046999.7,N
1562060595.3,286046999.8,N
1562060615.2,286046998.7,N
1562060635.0,286046998.4,N
1562060635.9,286046998.4,N
1562060655.7,286047000.9,N
1562060675.6,286046998.5,N
1562060695.4,286047001.1,N
1562060715.3,286046998.3,N
1562060735.1,286046999.5,N
1562060736.0,286046999.5,N
1562060755.8,286046998.4,N
1562060775.7,286046998.6,N
1562060795.5,286046998.7,N
1562060815.3,286046999.0,N
1562060835.2,286046998.4,N
1562060855.0,286047000.6,N
1562060855.9,286047000.6,N
1562060875.7,286047000.5,N
1562060895.6,286047000.9,N
1562060915.4,286046999.0,N
1562060935.3,286046998.5,N
1562060955.1,286047000.1,N
1562060956.0,286047000.1,N
1562060975.8,286047000.7,N
1562060995.7,286046998.9,N
1562061015.5,286046999.6,N
1562061035.3,286046997.3,N
1562061055.2,286046998.0,N
1562061075.0,286046996.4,Y
1562061075.9,286046996.4,P
1562061095.8,286046995.4,P
1562061115.6,286046995.4,N
1562061135.4,286046997.3,N
1562061155.3,286046996.5,N
1562061175.1,286046995.1,Y
1562061195.8,286046998.8,P
1562061215.7,286047001.1,N
1562061235.5,286047001.2,N
1562061255.4,286047000.0,N
1562061275.2,286047002.4,N
1562061295.0,286047000.4,N
1562061295.9,286047000.4,N
1562061315.8,286047001.7,N
1562061335.6,286047003.3,N
1562061355.5,286047005.8,Y
1562061375.3,286047004.0,P
1562061395.1,286047001.4,N
1562061415.9,286047004.3,N
1562061435.7,286047001.4,N
1562061455.5,286047004.3,N
1562061475.4,286047001.4,N
1562061495.2,286047002.5,N
1562061515.0,286047000.6,N
1562061515.9,286047000.6,N
1562061535.8,286047004.4,N
1562061555.6,286047001.3,N
1562061575.5,286047004.4,N
1562061595.3,286047002.0,N
